Location: Berg
(47.2344°N, 9.5296°E)
Time: 22:53:03
(UTC+00:00)

Cosmos 1758 Rocket - Pass Details

Date: 24 January 2021
Orbit: 601 x 636 km, 82.5° (Epoch: 04 March)

Event Time Altitude Azimuth Distance (km) Brightness Sun altitude
Rises 17:39:03 0° 164° (SSE) 2,897 7.0 -14.7°
Reaches altitude 10° 17:41:25 10° 155° (SSE) 2,001 6.0 -15.1°
Maximum altitude 17:45:25 34° 91° (E) 1,045 4.2 -15.7°
Enters shadow 17:47:31 22° 43° (NE) 1,381 4.9 -16.1°
